Tracking 31027 objects as of 19-Jul-2025
HD Live streaming from Space Station
objects crossing your sky now

COSMOS 886 DEB

Track COSMOS 886 DEB now!
10-day predictions


NORAD ID: 9823
Int'l Code: 1976-126AK
Perigee: 575.3 km
Apogee: 1,966.8 km
Inclination: 65.8 °
Period: 110.8 minutes
Semi major axis: 7642 km
RCS: 0.0286 m2 (small)
Launch date: December 27, 1976
Source: Commonwealth of Independent States (former USSR) (CIS)
Launch site: TYURATAM MISSILE AND SPACE COMPLEX (TTMTR)

Note: This is SATELLITE DEBRIS
Your satellite tracking list
STARLINK-31879
Track 1 satellite(s)




NASA's NSSDC Master Catalog

Two Line Element Set (TLE):
1 09823U 76126AK  25199.26008319  .00000326  00000-0  17867-3 0  9992
2 09823  65.7963 164.2153 0910424 165.3242 197.6229 12.99542091271665
Source of the keplerian elements: AFSPC